Météo par heure à Kistutovo

Ce jour, 6 Mars, Samedi

Heure Température Précipitation Vent Pression Humidité
00:00 -12°C° 0 mm 2 m/s 746 mmHg 95%
01:00 -12°C° 0 mm 2 m/s 747 mmHg 95%
02:00 -12°C° 0 mm 2 m/s 747 mmHg 96%
03:00 -10°C° 0 mm 1 m/s 747 mmHg 96%
04:00 -10°C° 0 mm 1 m/s 747 mmHg 96%
05:00 -10°C° 0 mm 1 m/s 747 mmHg 96%
06:00 -10°C° 0 mm 2 m/s 747 mmHg 94%
07:00 -10°C° 0 mm 2 m/s 747 mmHg 93%
08:00 -10°C° 0 mm 2 m/s 748 mmHg 92%
09:00 -9°C° 0 mm 2 m/s 748 mmHg 88%
10:00 -8°C° 0 mm 2 m/s 748 mmHg 84%
11:00 -7°C° 0 mm 2 m/s 748 mmHg 80%
12:00 -7°C° 0 mm 2 m/s 747 mmHg 77%
13:00 -7°C° 0 mm 3 m/s 747 mmHg 75%
14:00 -7°C° 0 mm 3 m/s 746 mmHg 72%
15:00 -7°C° 0 mm 2 m/s 745 mmHg 76%
16:00 -7°C° 0 mm 2 m/s 745 mmHg 80%
17:00 -8°C° 0 mm 2 m/s 744 mmHg 84%
18:00 -9°C° 0 mm 3 m/s 744 mmHg 83%
19:00 -9°C° 0 mm 3 m/s 743 mmHg 81%
20:00 -10°C° 0 mm 4 m/s 742 mmHg 80%
21:00 -9°C° 0.1 mm 4 m/s 741 mmHg 84%
22:00 -10°C° 0.1 mm 5 m/s 739 mmHg 87%
23:00 -10°C° 0.1 mm 6 m/s 738 mmHg 91%

Demain, 7 Mars, Dimanche

Heure Température Précipitation Vent Pression Humidité
00:00 -9°C° 0.4 mm 6 m/s 737 mmHg 92%
01:00 -9°C° 0.4 mm 6 m/s 735 mmHg 92%
02:00 -8°C° 0.4 mm 6 m/s 734 mmHg 93%
03:00 -8°C° 0.5 mm 6 m/s 733 mmHg 92%
04:00 -6°C° 0.5 mm 6 m/s 731 mmHg 92%
05:00 -6°C° 0.5 mm 6 m/s 730 mmHg 92%
06:00 -6°C° 0.4 mm 5 m/s 729 mmHg 92%
07:00 -6°C° 0.4 mm 5 m/s 729 mmHg 93%
08:00 -6°C° 0.4 mm 5 m/s 728 mmHg 93%
09:00 -6°C° 0.5 mm 5 m/s 728 mmHg 90%
10:00 -7°C° 0.5 mm 5 m/s 728 mmHg 86%
11:00 -7°C° 0.5 mm 5 m/s 728 mmHg 83%
12:00 -7°C° 0.3 mm 5 m/s 729 mmHg 77%
13:00 -7°C° 0.3 mm 5 m/s 729 mmHg 72%
14:00 -8°C° 0.3 mm 5 m/s 729 mmHg 67%
15:00 -7°C° 0 mm 3 m/s 729 mmHg 73%
16:00 -7°C° 0 mm 2 m/s 729 mmHg 79%
17:00 -7°C° 0 mm 1 m/s 729 mmHg 85%
18:00 -8°C° 0 mm 1 m/s 729 mmHg 87%
19:00 -9°C° 0 mm 0 m/s 730 mmHg 89%
20:00 -10°C° 0 mm 0 m/s 730 mmHg 91%
21:00 -10°C° 0.1 mm 1 m/s 730 mmHg 92%
22:00 -10°C° 0.1 mm 1 m/s 730 mmHg 92%
23:00 -12°C° 0.1 mm 2 m/s 730 mmHg 92%

Après-demain, 8 Mars, Lundi

Heure Température Précipitation Vent Pression Humidité
00:00 -13°C° 0 mm 2 m/s 730 mmHg 92%
01:00 -14°C° 0 mm 2 m/s 731 mmHg 92%
02:00 -15°C° 0 mm 2 m/s 731 mmHg 92%
03:00 -15°C° 0 mm 3 m/s 732 mmHg 92%
04:00 -15°C° 0 mm 3 m/s 732 mmHg 91%
05:00 -16°C° 0 mm 4 m/s 732 mmHg 91%
06:00 -15°C° 0.1 mm 4 m/s 733 mmHg 91%
07:00 -14°C° 0.1 mm 4 m/s 734 mmHg 91%
08:00 -12°C° 0.1 mm 4 m/s 734 mmHg 91%
09:00 -13°C° 0.1 mm 5 m/s 735 mmHg 89%
10:00 -13°C° 0.1 mm 5 m/s 736 mmHg 87%
11:00 -12°C° 0.1 mm 5 m/s 736 mmHg 85%
12:00 -12°C° 0.1 mm 5 m/s 737 mmHg 84%
13:00 -12°C° 0.1 mm 5 m/s 738 mmHg 84%
14:00 -11°C° 0.1 mm 4 m/s 739 mmHg 83%
15:00 -12°C° 0.1 mm 4 m/s 739 mmHg 85%
16:00 -12°C° 0.1 mm 4 m/s 740 mmHg 87%
17:00 -14°C° 0.1 mm 4 m/s 741 mmHg 89%
18:00 -15°C° 0 mm 4 m/s 741 mmHg 90%
19:00 -15°C° 0 mm 3 m/s 742 mmHg 91%
20:00 -16°C° 0 mm 3 m/s 743 mmHg 92%
21:00 -17°C° 0 mm 3 m/s 743 mmHg 93%
22:00 -18°C° 0 mm 3 m/s 744 mmHg 94%
23:00 -19°C° 0 mm 3 m/s 744 mmHg 95%

9 Mars, Mardi

Heure Température Précipitation Vent Pression Humidité
00:00 -21°C° 0 mm 3 m/s 745 mmHg 95%
01:00 -22°C° 0 mm 3 m/s 745 mmHg 96%
02:00 -21°C° 0 mm 2 m/s 746 mmHg 96%
03:00 -23°C° 0 mm 2 m/s 746 mmHg 96%
04:00 -24°C° 0 mm 2 m/s 747 mmHg 97%
05:00 -25°C° 0 mm 2 m/s 747 mmHg 97%
06:00 -24°C° 0 mm 2 m/s 747 mmHg 96%
07:00 -24°C° 0 mm 2 m/s 748 mmHg 95%
08:00 -24°C° 0 mm 2 m/s 748 mmHg 93%
09:00 -21°C° 0 mm 2 m/s 748 mmHg 89%
10:00 -19°C° 0 mm 2 m/s 748 mmHg 84%
11:00 -15°C° 0 mm 1 m/s 749 mmHg 79%
12:00 -14°C° 0 mm 1 m/s 749 mmHg 78%
13:00 -13°C° 0 mm 1 m/s 749 mmHg 77%
14:00 -12°C° 0 mm 1 m/s 749 mmHg 76%
15:00 -13°C° 0 mm 1 m/s 749 mmHg 80%
16:00 -14°C° 0 mm 1 m/s 748 mmHg 84%
17:00 -15°C° 0 mm 1 m/s 748 mmHg 88%
18:00 -16°C° 0 mm 1 m/s 749 mmHg 90%
19:00 -18°C° 0 mm 1 m/s 749 mmHg 93%
20:00 -21°C° 0 mm 2 m/s 749 mmHg 95%
21:00 -23°C° 0 mm 2 m/s 750 mmHg 96%
22:00 -24°C° 0 mm 2 m/s 750 mmHg 96%
23:00 -25°C° 0 mm 2 m/s 750 mmHg 97%

10 Mars, Mercredi

Heure Température Précipitation Vent Pression Humidité
00:00 -26°C° 0 mm 2 m/s 750 mmHg 97%
01:00 -26°C° 0 mm 2 m/s 751 mmHg 97%
02:00 -24°C° 0 mm 1 m/s 751 mmHg 97%
03:00 -25°C° 0 mm 1 m/s 751 mmHg 97%
04:00 -25°C° 0 mm 1 m/s 752 mmHg 97%
05:00 -27°C° 0 mm 1 m/s 752 mmHg 97%
06:00 -28°C° 0 mm 2 m/s 753 mmHg 96%
07:00 -27°C° 0 mm 2 m/s 753 mmHg 95%
08:00 -27°C° 0 mm 2 m/s 754 mmHg 93%
09:00 -25°C° 0 mm 2 m/s 754 mmHg 89%
10:00 -23°C° 0 mm 2 m/s 754 mmHg 85%
11:00 -20°C° 0 mm 2 m/s 754 mmHg 81%
12:00 -19°C° 0 mm 2 m/s 754 mmHg 79%
13:00 -18°C° 0 mm 2 m/s 754 mmHg 77%
14:00 -15°C° 0 mm 1 m/s 754 mmHg 75%
15:00 -16°C° 0 mm 1 m/s 754 mmHg 79%
16:00 -17°C° 0 mm 1 m/s 754 mmHg 84%
17:00 -18°C° 0 mm 1 m/s 754 mmHg 89%
18:00 -19°C° 0 mm 1 m/s 754 mmHg 91%
19:00 -20°C° 0 mm 1 m/s 754 mmHg 92%
20:00 -21°C° 0 mm 1 m/s 755 mmHg 93%
21:00 -22°C° 0 mm 1 m/s 755 mmHg 93%
22:00 -23°C° 0 mm 1 m/s 755 mmHg 93%
23:00 -23°C° 0 mm 1 m/s 755 mmHg 93%

11 Mars, Jeudi

Heure Température Précipitation Vent Pression Humidité
00:00 -23°C° 0 mm 1 m/s 755 mmHg 93%
01:00 -24°C° 0 mm 1 m/s 755 mmHg 93%
02:00 -24°C° 0 mm 1 m/s 755 mmHg 92%
03:00 -24°C° 0 mm 1 m/s 755 mmHg 92%
04:00 -24°C° 0 mm 1 m/s 755 mmHg 92%
05:00 -24°C° 0 mm 1 m/s 755 mmHg 92%
06:00 -23°C° 0 mm 1 m/s 755 mmHg 90%
07:00 -22°C° 0 mm 1 m/s 755 mmHg 89%
08:00 -24°C° 0 mm 2 m/s 755 mmHg 87%
09:00 -21°C° 0 mm 2 m/s 754 mmHg 84%
10:00 -21°C° 0 mm 3 m/s 754 mmHg 80%
11:00 -18°C° 0 mm 3 m/s 754 mmHg 76%
12:00 -17°C° 0 mm 3 m/s 753 mmHg 75%
13:00 -17°C° 0 mm 4 m/s 753 mmHg 74%
14:00 -16°C° 0 mm 4 m/s 752 mmHg 72%
15:00 -17°C° 0 mm 4 m/s 751 mmHg 74%
16:00 -17°C° 0 mm 4 m/s 751 mmHg 77%
17:00 -18°C° 0 mm 4 m/s 750 mmHg 79%
18:00 -18°C° 0 mm 4 m/s 749 mmHg 79%
19:00 -19°C° 0 mm 5 m/s 748 mmHg 80%
20:00 -20°C° 0 mm 5 m/s 747 mmHg 80%
21:00 -21°C° 0 mm 6 m/s 747 mmHg 80%
22:00 -21°C° 0 mm 6 m/s 746 mmHg 80%
23:00 -21°C° 0 mm 6 m/s 745 mmHg 79%
Voir plus

Nous avons besoin de votre consentement

Meteoprog et ses fournisseurs de services peuvent stocker et accéder à des données personnelles telles que des cookies, des identifiants d'appareils ou d'autres technologies similaires sur votre appareil et traiter ces données pour personnaliser le contenu et les publicités, ainsi que pour fournir des fonctionnalités de médias sociaux et analyser le trafic.

  • Stocker et/ou accéder à des informations sur votre appareil

    Des cookies, des identifiants d'appareils ou d'autres informations peuvent être stockés ou accessibles sur votre appareil aux fins indiquées ci-dessus.

  • Annonces et contenus personnalisés, mesure des annonces et des contenus, connaissance de l'audience et développement de produits

    Les annonces et le contenu peuvent être personnalisés en fonction d'un profil. D'autres données peuvent être ajoutées pour mieux personnaliser les annonces et le contenu. Les performances des publicités et du contenu peuvent être mesurées. Il est possible d'obtenir des informations sur le public qui a vu les publicités et le contenu. Ces données peuvent être utilisées pour développer ou améliorer l'expérience de l'utilisateur, les systèmes et les logiciels.

En cliquant sur "J'accepte", vous autorisez l'utilisation de cookies, des identifiants d'appareils, des balises web ou d'autres technologies similaires. Vos paramètres peuvent être modifiés dans le navigateur de votre appareil.

Dans certains cas, des intérêts légitimes peuvent être invoqués plutôt qu'un consentement. Vous pouvez en savoir plus à ce sujet dans notre Politique de confidentialité et de cookies.